HUERBEL Weather Reports


time (UTC)temp
C
wind
direction
speed
KPH
gust
KPH
rain 1hr
cm
rain 24hr
cm
rain mn
cm
humidity
%
barometer
mb
20260507023211 8 246 16.1 0.0 0.00 0.00 0.00 81 1012.4
20260507020211 8 229 19.3 0.0 0.00 0.00 0.00 82 1012.1
20260507013212 8 236 24.1 0.0 0.00 0.00 0.00 83 1011.9
20260507010211 8 242 17.7 0.0 0.00 0.00 0.00 84 1012.0
20260507003209 8 263 11.3 0.0 0.00 0.00 0.00 83 1012.1
20260507000209 8 199 11.3 0.0 0.00 0.00 0.00 83 1012.1
20260506233209 8 269 6.4 0.0 0.00 0.00 0.00 83 1012.1
20260506230209 8 225 11.3 0.0 0.00 0.00 0.00 83 1011.8
20260506223209 8 232 14.5 0.0 0.00 0.00 0.00 83 1011.7
20260506213209 9 221 14.5 0.0 0.00 0.00 0.15 82 1011.4
20260506210210 9 200 14.5 0.0 0.00 0.00 0.15 82 1011.2
20260506203210 10 209 14.5 0.0 0.00 0.00 0.15 82 1011.3
20260506200210 10 243 14.5 0.0 0.00 0.00 0.15 82 1011.2
20260506193215 10 227 16.1 0.0 0.00 0.00 0.15 81 1010.7
20260506190211 10 238 22.5 0.0 0.00 0.00 0.15 80 1010.3
20260506183209 10 217 19.3 0.0 0.00 0.00 0.15 80 1010.0
20260506180216 10 296 19.3 0.0 0.00 0.00 0.15 81 1009.8
20260506173210 10 242 24.1 0.0 0.00 0.00 0.15 80 1009.3
20260506170215 10 262 24.1 0.0 0.00 0.00 0.15 80 1008.7
20260506163210 10 302 16.1 0.0 0.00 0.00 0.15 83 1008.8
20260506160210 10 259 33.8 0.0 0.00 0.00 0.15 81 1008.6
20260506153210 11 231 41.8 0.0 0.00 0.00 0.15 82 1008.2
20260506150210 16 221 41.8 0.0 0.00 0.00 0.08 66 1007.2
20260506143210 17 209 6.4 0.0 0.00 0.00 0.08 64 1006.2
20260506140210 14 292 6.4 0.0 0.00 0.00 0.08 76 1006.1
20260506133211 16 215 11.3 0.0 0.00 0.00 0.00 60 1006.5
20260506130211 17 194 12.9 0.0 0.00 0.00 0.00 54 1006.4
20260506123210 17 220 14.5 0.0 0.00 0.00 0.00 57 1006.1
20260506120210 16 150 6.4 0.0 0.00 0.00 0.00 59 1006.1
20260506113217 17 124 8.0 0.0 0.00 0.00 0.00 60 1006.2
20260506110210 17 171 8.0 0.0 0.00 0.00 0.00 60 1006.4
20260506100213 15 263 6.4 0.0 0.00 0.00 0.00 66 1007.0
20260506093211 16 177 11.3 0.0 0.00 0.00 0.00 65 1007.2
20260506090211 15 348 11.3 0.0 0.00 0.00 0.00 65 1007.2
20260506083211 15 355 11.3 0.0 0.00 0.00 0.00 71 1007.1
20260506080212 12 5 4.8 0.0 0.00 0.00 0.00 82 1007.4
20260506073211 12 345 4.8 0.0 0.00 0.00 0.00 82 1007.5
20260506070212 12 148 6.4 0.0 0.00 0.00 0.00 82 1007.9
20260506060210 9 109 4.8 0.0 0.00 0.00 0.00 90 1007.9
20260506050211 7 159 1.6 0.0 0.00 0.00 0.00 88 1008.0
20260506043211 7 159 1.6 0.0 0.00 0.00 0.00 88 1008.2
20260506040211 7 158 3.2 0.0 0.00 0.00 0.00 88 1008.4
20260506033211 7 184 4.8 0.0 0.00 0.00 0.00 87 1008.7
20260506030212 8 188 3.2 0.0 0.00 0.00 0.00 87 1008.8